Simultaneous Nadir Overpasses (SNOs) Predictions

Prediction of SNOs between AQUA and NOAA-19 Satellite Orbit:

Table of predicted SNOs for the next 14.0 days since TLE Epoch: 12/9/2012
Index Date (AQUA) Time (AQUA) AQUA Lat,Lon Date (NOAA-19) Time (NOAA-19) NOAA-19 Lat,Lon Distance(km) Time Diff (sec)
1 12/10/2012 00:25:51 -46.04,-154.08 12/10/2012 00:25:24 -45.90,-153.49 48.41 27
2 12/10/2012 01:14:05 50.16, 15.21 12/10/2012 01:15:15 50.11, 15.54 24.18 70
3 12/12/2012 05:10:11 -46.03, 134.83 12/12/2012 05:09:54 -45.91, 135.40 45.71 17
4 12/12/2012 05:54:42 63.19, -48.35 12/12/2012 05:55:55 63.06, -47.53 43.65 73
5 12/14/2012 09:54:30 -46.04, 63.76 12/14/2012 09:54:23 -45.96, 64.30 42.92 7
6 12/14/2012 10:33:36 79.90, -80.83 12/14/2012 10:34:49 79.39, -78.94 68.05 73
7 12/16/2012 14:38:45 -46.25, -7.24 12/16/2012 14:38:49 -46.17, -6.73 40.22 4
8 12/16/2012 15:04:21 46.08, -30.84 12/16/2012 15:05:16 45.86, -31.88 83.74 55
9 12/18/2012 19:22:51 -46.94, -78.05 12/18/2012 19:23:06 -46.87, -77.56 38.16 15
10 12/18/2012 19:48:39 46.10,-101.92 12/18/2012 19:49:46 45.88,-103.00 86.95 67
11 12/20/2012 23:17:53 46.06, 42.92 12/20/2012 23:16:52 45.91, 43.69 61.55 61
12 12/21/2012 00:06:56 -47.65,-148.85 12/21/2012 00:07:23 -47.57,-148.38 35.85 27
13 12/23/2012 04:02:10 46.01, -28.16 12/23/2012 04:01:21 45.90, -27.43 58.17 49




NCC Satellite Simultaneous Nadir Overpasses (SNOs) Prediction Service
